Total_Precipitation_Accumulation
0.28 0.21 0.20 0.15 0.11 0.11 0.12 0.15 0.16 0.13 0.03 0.00 0.00 0.00 0.00 0.00 0.00 0.00 0.01 0.00 0.00 0.00 0.02 0.05 0.06 0.03 0.01 0.03 0.04 0.04 0.03 0.02 0.02 0.01 0.01 0.01 0.02 0.03
0.30 0.35 0.26 0.21 0.21 0.15 0.11 0.13 0.11 0.11 0.07 0.01 0.01 0.02 0.01 0.00 0.03 0.02 0.00 0.01 0.00 0.00 0.00 0.02 0.05 0.03 0.01 0.02 0.02 0.02 0.02 0.02 0.01 0.01 0.01 0.01 0.01 0.02
0.56 0.35 0.38 0.23 0.28 0.24 0.17 0.08 0.08 0.06 0.06 0.02 0.01 0.01 0.02 0.01 0.01 0.01 0.00 0.00 0.00 0.00 0.00 0.00 0.02 0.03 0.02 0.01 0.02 0.02 0.01 0.01 0.01 0.01 0.01 0.01 0.01 0.01
0.58 0.50 0.33 0.31 0.29 0.29 0.26 0.18 0.06 0.04 0.04 0.04 0.04 0.01 0.01 0.01 0.01 0.01 0.00 0.00 0.00 0.01 0.00 0.00 0.00 0.02 0.02 0.01 0.01 0.02 0.01 0.00 0.01 0.00 0.00 0.01 0.01 0.00
0.52 0.56 0.35 0.38 0.29 0.31 0.27 0.23 0.12 0.04 0.04 0.05 0.06 0.04 0.01 0.02 0.01 0.01 0.00 0.00 0.00 0.02 0.01 0.00 0.00 0.00 0.01 0.02 0.01 0.01 0.01 0.01 0.00 0.00 0.00 0.00 0.00 0.01
0.67 0.47 0.53 0.39 0.37 0.22 0.29 0.24 0.15 0.09 0.06 0.07 0.07 0.06 0.04 0.01 0.02 0.02 0.01 0.01 0.01 0.00 0.01 0.00 0.00 0.00 0.00 0.01 0.01 0.01 0.01 0.01 0.01 0.00 0.00 0.00 0.00 0.00
0.98 0.76 0.58 0.55 0.41 0.26 0.24 0.25 0.17 0.17 0.11 0.10 0.10 0.07 0.07 0.04 0.03 0.01 0.02 0.00 0.01 0.01 0.02 0.01 0.00 0.00 0.00 0.00 0.00 0.00 0.01 0.01 0.01 0.00 0.00 0.00 0.00 0.00
1.22 1.08 0.81 0.74 0.57 0.47 0.37 0.33 0.20 0.19 0.16 0.11 0.10 0.10 0.06 0.04 0.02 0.02 0.02 0.02 0.02 0.01 0.02 0.01 0.00 0.00 0.00 0.00 0.00 0.00 0.00 0.00 0.01 0.00 0.00 0.00 0.00 0.00
0.84 1.02 1.12 0.86 0.75 0.62 0.53 0.39 0.31 0.24 0.22 0.14 0.11 0.10 0.06 0.05 0.04 0.04 0.04 0.05 0.03 0.02 0.03 0.02 0.00 0.00 0.00 0.00 0.00 0.00 0.00 0.00 0.00 0.00 0.00 0.00 0.00 0.00
0.68 0.89 1.11 1.04 0.85 0.79 0.79 0.64 0.37 0.27 0.19 0.16 0.12 0.09 0.09 0.07 0.10 0.07 0.06 0.07 0.07 0.06 0.08 0.07 0.01 0.00 0.00 0.00 0.00 0.00 0.00 0.00 0.00 0.00 0.00 0.00 0.00 0.00
1.11 0.98 1.33 1.13 1.15 1.02 0.93 1.01 0.70 0.36 0.22 0.15 0.10 0.07 0.10 0.14 0.13 0.16 0.16 0.17 0.16 0.10 0.10 0.08 0.05 0.02 0.00 0.00 0.00 0.00 0.00 0.00 0.00 0.00 0.00 0.00 0.00 0.00
1.23 0.80 1.32 1.34 1.25 1.49 1.27 1.07 1.07 0.69 0.30 0.25 0.19 0.17 0.12 0.11 0.16 0.17 0.20 0.27 0.19 0.14 0.12 0.12 0.07 0.05 0.00 0.00 0.00 0.00 0.00 0.00 0.00 0.00 0.00 0.00 0.00 0.00
1.57 1.08 0.85 1.12 0.99 1.35 1.72 1.30 0.83 0.60 0.57 0.37 0.22 0.16 0.15 0.15 0.17 0.13 0.14 0.19 0.23 0.20 0.14 0.11 0.06 0.08 0.01 0.00 0.00 0.00 0.00 0.00 0.00 0.00 0.00 0.00 0.00 0.00
1.78 1.30 0.99 1.04 1.13 1.34 1.72 1.73 1.11 0.97 1.07 0.86 0.70 0.44 0.29 0.20 0.19 0.13 0.10 0.09 0.09 0.11 0.13 0.18 0.17 0.13 0.01 0.00 0.00 0.00 0.00 0.00 0.00 0.00 0.00 0.00 0.00 0.00
1.91 1.58 1.28 1.16 1.27 1.31 1.45 1.65 1.78 1.87 1.84 1.51 1.20 0.70 0.38 0.20 0.12 0.12 0.12 0.08 0.10 0.09 0.12 0.14 0.17 0.22 0.12 0.01 0.00 0.00 0.00 0.00 0.00 0.00 0.00 0.00 0.00 0.00
2.05 1.72 1.20 1.08 1.24 1.40 1.50 1.52 2.03 2.24 2.35 1.91 1.45 1.10 0.78 0.61 0.46 0.35 0.28 0.19 0.19 0.18 0.12 0.11 0.10 0.12 0.14 0.06 0.00 0.00 0.00 0.00 0.00 0.00 0.00 0.00 0.00 0.00
1.65 2.00 1.43 1.09 1.15 1.37 1.42 1.41 1.46 1.71 1.81 1.78 1.47 1.41 1.38 1.43 1.10 0.83 0.61 0.40 0.27 0.19 0.13 0.11 0.13 0.09 0.06 0.06 0.02 0.01 0.00 0.01 0.00 0.00 0.00 0.00 0.00 0.00
0.34 0.85 1.42 1.58 1.47 1.58 1.47 1.43 1.33 1.51 1.49 1.25 1.19 1.21 1.32 1.39 1.46 1.24 1.12 0.89 0.52 0.31 0.17 0.11 0.14 0.19 0.14 0.11 0.08 0.02 0.01 0.01 0.00 0.00 0.00 0.00 0.00 0.00
0.02 0.12 0.41 0.90 1.39 1.65 1.73 1.61 1.55 1.51 1.41 1.25 1.09 1.10 1.15 1.19 1.37 1.31 1.29 1.22 0.97 0.83 0.65 0.48 0.30 0.25 0.23 0.13 0.05 0.04 0.00 0.00 0.00 0.00 0.00 0.00 0.00 0.00
0.02 0.03 0.07 0.22 0.53 0.85 1.24 1.66 1.74 1.71 1.59 1.42 1.20 1.12 1.11 1.08 1.10 1.20 1.28 1.36 1.30 1.23 0.99 0.76 0.73 0.73 0.41 0.16 0.05 0.03 0.03 0.02 0.03 0.05 0.03 0.00 0.02 0.02
0.01 0.02 0.05 0.06 0.10 0.21 0.37 0.68 1.25 1.56 1.66 1.54 1.39 1.22 1.15 1.08 1.04 1.10 1.14 1.39 1.31 1.17 1.15 1.04 0.97 1.10 0.62 0.40 0.28 0.17 0.13 0.16 0.10 0.08 0.07 0.06 0.02 0.01
0.01 0.01 0.02 0.04 0.06 0.07 0.11 0.16 0.27 0.60 0.98 1.26 1.30 1.26 1.19 1.15 1.18 1.17 1.12 1.03 0.99 0.96 1.01 0.94 0.87 0.85 0.78 0.74 0.62 0.52 0.43 0.38 0.37 0.31 0.27 0.22 0.15 0.08
0.01 0.01 0.01 0.02 0.03 0.06 0.08 0.09 0.13 0.16 0.24 0.49 0.76 0.88 0.99 1.02 1.04 1.09 1.09 1.10 1.07 1.00 0.95 0.85 0.74 0.72 0.80 0.85 1.00 0.74 0.70 0.65 0.68 0.67 0.60 0.85 0.62 0.45